Location: Góry Miechowskie
(50.3599°N, 20.1803°E)
Time: 22:47:00
(UTC+00:00)

Vanguard 3 - Pass Details

Date: 20 September 2024
Orbit: 507 x 3224 km, 33.4° (Epoch: 02 October)

Event Time Altitude Azimuth Distance (km) Brightness Sun altitude
Rises 03:45:28 0° 220° (SW) 6,233 11.2 -6.8°
Reaches altitude 10° 03:49:46 10° 212° (SSW) 5,525 11.0 -6.1°
Maximum altitude 04:04:51 36° 155° (SSE) 4,339 11.1 -3.7°
Drops below altitude 10° 04:20:56 10° 99° (E) 5,915 13.4 -1.2°
Sets 04:25:42 0° 92° (E) 6,708 15.3 -0.4°
